Regional Weather Roundup
Issued by NWS Upton, NY

Current Version | Previous Version | Text Only | Print | Product List | Glossary On
Versions: 1 2 3 4 5 6 7 8 9 10 11 12 13 14 15 16 17 18 19 20 21 22 23 24 25 26 27 28 29 30 31 32 33 34 35 36 37 38 39 40 41 42 43 44 45 46 47 48 49 50
000
ASUS41 KOKX 020018
RWROKX

REGIONAL WEATHER ROUNDUP
NATIONAL WEATHER SERVICE NEW YORK NY
800 PM EDT WED JUL 01 2015

NOTE: "FAIR" INDICATES FEW OR NO CLOUDS BELOW 12,000 FEET WITH NO
SIGNIFICANT WEATHER AND/OR OBSTRUCTIONS TO VISIBILITY.

NYZ071-072-176-178-NJZ106-104-020100-
NEW YORK CITY METRO AREA


CITY           SKY/WX    TMP DP  RH WIND       PRES   REMARKS
CENTRAL PARK   PTCLDY    81  57  43 VRB7      29.82R
LAGUARDIA APRT PTCLDY    82  58  43 W9        29.78R
KENNEDY INTL   MOCLDY    83  59  44 W16       29.80R
NEWARK/LIBERTY MOCLDY    81  57  44 W12       29.80R
BRNX BOT. GARD   N/A     79  55  44 W18       29.81R
TETERBORO      PTCLDY    79  57  46 W9G21     29.78R
$$

NYZ177-179-078>081-020100-
LONG ISLAND NEW YORK

CITY           SKY/WX    TMP DP  RH WIND       PRES   REMARKS
FARMINGDALE    PTCLDY    82  59  45 W15G22    29.79R
ISLIP          MOCLDY    75  66  73 SW10      29.78R
SHIRLEY        CLEAR     75  67  76 S8        29.80R
WESTHAMPTON    CLEAR     71  68  90 SW12      29.80R
MONTAUK POINT    N/A     72  66  81 SW8       29.80R
$$

NYZ052-065-067-020100-
HUDSON VALLEY

CITY           SKY/WX    TMP DP  RH WIND       PRES   REMARKS
WHITE PLAINS   CLEAR     78  57  48 W12G22    29.79R
NEWBURGH       PTCLDY    77  63  61 W12G28    29.81
MONTGOMERY     NOT AVBL
POUGHKEEPSIE   MOCLDY    76  60  57 W7        29.79R
ALBANY         PTCLDY    70  58  65 W14       29.79R
$$

NJZ001-105-106-008-010-013-015-019>022-104-020100-
NEW JERSEY

CITY           SKY/WX    TMP DP  RH WIND       PRES   REMARKS
NEWARK/LIBERTY MOCLDY    81  57  44 W12       29.80R
TETERBORO      PTCLDY    79  57  46 W9G21     29.78R
CALDWELL       PTCLDY    79  58  48 W6        29.80R
MORRISTOWN     MOCLDY    79  61  53 W9        29.80R
SOMERVILLE     PTCLDY    74  63  68 CALM      29.80R
SUSSEX         MOCLDY    74  60  61 CALM      29.82R
ANDOVER          N/A     75  60  59 VRB3      29.83R
TRENTON        MOCLDY    80  58  46 W7        29.82R
MILLVILLE      PTCLDY    77  68  73 CALM      29.85R
ATLANTIC CITY  CLEAR     81  66  60 SW7       29.84R
WRIGHTSTOWN    PTCLDY    79  62  57 W7        29.81R
TOMS RIVER     PTCLDY    79  63  57 W3        29.83R
BELMAR         PTCLDY    79  61  53 W6        29.82R
$$

PAZ047>061-062-071-020100-
EASTERN PENNSYLVANIA

CITY           SKY/WX    TMP DP  RH WIND       PRES   REMARKS
PHILADELPHIA   MOCLDY    83  59  44 W9        29.84R
ALLENTOWN      PTCLDY    76  60  57 W7        29.83R
SCRANTON       MOCLDY    75  59  57 W6        29.84R
$$

CTZ002-004>006-009-010-012-RIZ004-006-007-MAZ004-011-015-020100-
SOUTHERN NEW ENGLAND
 IN CT

CITY           SKY/WX    TMP DP  RH WIND       PRES   REMARKS
BRADLEY INTL   MOCLDY    77  58  51 W17       29.75R
HARTFORD       MOCLDY    79  59  50 W12G21    29.75R
DANBURY        MOCLDY    76  56  49 W10G17    29.81R
WTRBRY/OXFORD  NOT AVBL
BRIDGEPORT     CLEAR     81  61  50 W10       29.77R
MERIDEN        CLEAR     77  63  61 VRB5      29.76R
NEW HAVEN      CLEAR     78  63  59 VRB5      29.77R
CHESTER        FAIR      73  66  78 SW7       29.79R
GROTON         CLEAR     70  65  84 SW13      29.76R
WILLIMANTIC    MOCLDY    76  66  71 SW7       29.76R

 IN RI

CITY           SKY/WX    TMP DP  RH WIND       PRES   REMARKS
PROVIDENCE     PTCLDY    75  66  73 S14       29.76R
BLOCK ISLAND   CLEAR     68  64  88 SW14G21   29.78S
WESTERLY       CLEAR     73  65  75 SW8       29.77S

 IN MA

CITY           SKY/WX    TMP DP  RH WIND       PRES   REMARKS
BOSTON         PTCLDY    78  64  61 SW17      29.72R
WORCESTER      LGT RAIN  70  59  68 NW10      29.78R
WESTFIELD      MOCLDY    72  61  68 NW6       29.77R
PROVINCETOWN   CLEAR     66  10  11 SW17G23   29.75R
NANTUCKET      CLEAR     67  64  90 SW13      29.81R
$$

ANZ330-335-338-340-345-350-353-355-020100-
COASTAL MARINE OBSERVATIONS


STATION/POSITION TIME  SKY/WX   TEMP    WIND        PRES    VSBY  WAVE
                                AIR SEA DIR/SP/G                  HT/PER
                 (UTC)          (F)     (DEG/KT/KT) (MB)    (MI)  (FT/S)
NY HARB ENTRANCE 2350            77 70  270/ 12/ 14 1008.5          4/ 7
4S FIRE IS       2303               68                N/A           4/ 6
20S FIRE ISLAND  2350            70 67  220/ 14/ 16 1008.7          5/ 6
GREAT SOUTH BAY  2330            74 75  240/ 14/ 17   N/A
23SW MTP         2350            69 66  230/ 14/ 16 1008.3          4/ 6
HUDSON CANYON    NOT AVBL
KINGS POINT      2300            79 70  290/ 10/ 12 1007.4
CENTRAL LI SOUND NOT AVBL
EASTERN LI SOUND 2300            72 64  210/ 12/ 16   N/A
ROBBINS REEF     2300            81     280/ 18/ 23 1007.3
$$


>>>>>>>>>>>>>>>>>>>>>>>>>>>> KEY <<<<<<<<<<<<<<<<<<<<<<<<<<<
>                                                          <
>     SKY/WX - SKY CONDITION/PRESENT WEATHER               <
>     TMP    - TEMPERATURE IN FAHRENHEIT                   <
>     DP     - DEWPOINT IN FAHRENHEIT                      <
>     RH     - RELATIVE HUMIDITY IN PERCENT                <
>     WIND   - DIRECTION AND SPEED IN MPH                  <
>     PRES   - MEAN SEA LEVEL PRESSURE IN INCHES OF HG     <
>     WCI    - WIND CHILL INDEX                            <
>     VSB    - VISIBILITY IN MILES                         <
>     HX     - HEAT INDEX                                  <
>     TC     - TEMPERATURE IN CELSIUS                      <
>     VRB    - VARIABLE WIND DIRECTION                     <
>                                                          <
>>>>>>>>>>>>>>>>>>>>>>>>>>>> KEY <<<<<<<<<<<<<<<<<<<<<<<<<<<




USA.gov is the U.S. government's official web portal to all federal, state and local government web resources and services.